Location: Wyoming Infrared Observatory
(41.0971°N, 105.9765°W)
Time: 16:02:57
(UTC-06:00)

Amateur Radio Satellites - All Passes

Search period start: 27 May 2016 15:32
Search period end: 28 May 2016 15:32
Location: Wyoming Infrared Observatory, 41.0971°N, 105.9765°W

Satellite Date Start Highest point End Downlink Frequencies (MHz)
Time Altitude Azimuth
Gurwin Techsat 1B 27 May 15:41:41 15:45:15 18° 268° (W) 15:48:49 435.225
BEESAT 27 May 15:43:00 15:47:47 71° 286° (WNW) 15:52:33 436.000
RS-15 27 May 15:45:24 15:51:29 16° 96° (E) 15:57:43 29.354- 29.394
ITAMSAT 1 27 May 16:00:11 16:04:35 28° 264° (W) 16:09:02 435.822/435.867
YUBILEINY 27 May 16:11:14 16:19:29 51° 89° (E) 16:27:47 435.215
Cosmos 2491 27 May 16:11:31 16:20:15 75° 266° (W) 16:28:55 435.465 / 435.565
AO-7 27 May 16:30:16 16:38:20 55° 258° (WSW) 16:46:29 29.400- 29.500
AO-85 27 May 16:37:24 16:40:35 19° 251° (WSW) 16:43:36 145.980
KKS-1 27 May 16:40:18 16:44:41 58° 101° (E) 16:49:02 437.445
NOAA 15 27 May 16:45:45 16:48:30 14° 59° (ENE) 16:51:15 137.62
NOAA 18 27 May 16:48:14 16:50:48 14° 58° (ENE) 16:53:23 137.9125
Cubesat XI-IV 27 May 16:52:03 16:53:11 11° 57° (ENE) 16:54:20 437.490
SWISSCUBE 27 May 16:52:36 16:55:16 15° 298° (WNW) 16:57:57 437.505
MOZHAYETS 4 27 May 16:54:53 16:59:29 65° 100° (E) 17:04:05
ITUPSAT 1 27 May 16:58:44 17:01:23 15° 298° (WNW) 17:04:01 437.325
HORYU 2 27 May 17:04:39 17:09:04 85° 258° (WSW) 17:13:30 437.375
STARS 27 May 17:16:12 17:20:35 74° 103° (ESE) 17:24:56 437.465
Cosmos 2504 27 May 17:16:55 17:23:14 34° 85° (E) 17:29:48 435.465 / 435.565
BRITE-PL 27 May 17:19:55 17:24:15 23° 64° (ENE) 17:28:36 437.365/2234.400
CUTE-I 27 May 17:34:36 17:38:56 27° 65° (ENE) 17:43:19 437.470
GOMX 1 27 May 17:45:32 17:49:17 19° 64° (ENE) 17:52:58 467.674
RS-15 27 May 17:50:23 18:01:35 75° 117° (ESE) 18:13:30 29.354- 29.394
HO-68 27 May 18:05:13 18:06:29 11° 48° (NE) 18:07:44 435.675
YUBILEINY 27 May 18:08:47 18:16:31 35° 289° (WNW) 18:24:20 435.215
Cosmos 2491 27 May 18:11:49 18:15:25 13° 286° (WNW) 18:19:01 435.465 / 435.565
LilacSat-2 27 May 18:13:58 18:17:37 46° 74° (ENE) 18:21:16 437.200
PCSat 27 May 18:17:34 18:22:09 27° 48° (NE) 18:26:42 145.827
KKS-1 27 May 18:18:26 18:20:45 14° 297° (WNW) 18:23:04 437.445
CUBESAT XI-V 27 May 18:20:05 18:24:46 58° 101° (E) 18:29:22 437.345
O/OREOS (USA 219) 27 May 18:20:43 18:22:28 12° 51° (NE) 18:24:13 437.305
NOAA 15 27 May 18:22:16 18:27:34 80° 256° (WSW) 18:32:56 137.62
NOAA 18 27 May 18:25:14 18:30:42 88° 260° (W) 18:36:11 137.9125
Cubesat XI-IV 27 May 18:27:03 18:32:21 78° 73° (ENE) 18:37:41 437.490
MOZHAYETS 4 27 May 18:33:46 18:36:07 14° 298° (WNW) 18:38:28
DOVE 4 27 May 18:33:55 18:38:06 25° 67° (ENE) 18:42:10 437.250
STARS 27 May 18:55:02 18:56:19 11° 299° (WNW) 18:57:37 437.465
BRITE-PL 27 May 18:56:46 19:02:16 54° 261° (W) 19:07:52 437.365/2234.400
CANX-2 27 May 19:04:22 19:06:20 13° 64° (ENE) 19:08:18 2200.000
CINEMA 3 27 May 19:06:04 19:08:42 15° 65° (ENE) 19:11:18 145.822/145.860
Cosmos 2504 27 May 19:09:34 19:16:21 43° 286° (WNW) 19:23:33 435.465 / 435.565
CUTE-I 27 May 19:13:49 19:18:46 40° 262° (W) 19:23:46 437.470
GOMX 1 27 May 19:21:25 19:26:52 62° 260° (W) 19:32:13 467.674
AUBIESAT-1 27 May 19:26:27 19:30:12 35° 67° (ENE) 19:33:44 437.475
CUTE 1.7 + AOD 2 27 May 19:30:10 19:33:23 22° 67° (ENE) 19:36:37 437.475
M-CUBED/EXP-1 PRIME 27 May 19:32:50 19:36:56 52° 69° (ENE) 19:40:44 437.505
STRAND 1 27 May 19:39:16 19:43:46 30° 96° (E) 19:48:13 437.568
HO-68 27 May 19:45:44 19:52:38 55° 68° (ENE) 19:59:33 435.675
LilacSat-2 27 May 19:50:49 19:52:11 12° 269° (W) 19:53:32 437.200
COMPASS 1 27 May 19:51:50 19:54:48 19° 67° (ENE) 19:57:48 437.405
AAUSAT CUBESAT 2 27 May 19:54:39 19:57:19 17° 66° (ENE) 19:59:58 437.432
CUBEBUG 2 27 May 19:55:27 19:57:48 14° 65° (ENE) 20:00:07 437.445
BEESAT 3 27 May 19:57:08 20:00:30 26° 48° (NE) 20:03:52 437.485
O/OREOS (USA 219) 27 May 19:57:58 20:02:28 79° 249° (WSW) 20:06:55 437.305
CUBESAT XI-V 27 May 19:58:52 20:01:38 16° 297° (WNW) 20:04:24 437.345
PCSat 27 May 20:00:34 20:05:47 48° 247° (WSW) 20:10:57 145.827
RS-15 27 May 20:04:35 20:15:09 39° 323° (NW) 20:26:18 29.354- 29.394
DOVE 4 27 May 20:10:38 20:15:33 41° 262° (W) 20:20:20 437.250
Cubesat XI-IV 27 May 20:10:42 20:13:00 13° 271° (W) 20:15:19 437.490
NOAA 18 27 May 20:11:01 20:12:04 11° 271° (W) 20:13:08 137.9125
UWE-3 27 May 20:23:03 20:26:05 19° 67° (ENE) 20:29:06 435.000/436.395/437.385
FUNcube-1 27 May 20:27:59 20:30:03 14° 64° (ENE) 20:32:06 145.935
CANX-2 27 May 20:37:34 20:41:42 56° 260° (W) 20:45:52 2200.000
SEEDS 27 May 20:39:58 20:44:08 85° 258° (WSW) 20:48:21 437.485
CINEMA 3 27 May 20:40:43 20:45:25 59° 260° (W) 20:49:56 145.822/145.860
BEESAT 2 27 May 20:59:46 21:03:45 66° 56° (NE) 21:07:42 435.950
AUBIESAT-1 27 May 21:01:53 21:04:44 18° 260° (W) 21:07:30 437.475
CUSAT 1 27 May 21:04:47 21:06:45 11° 52° (NE) 21:08:39 437.405
CUTE 1.7 + AOD 2 27 May 21:05:18 21:09:03 31° 264° (W) 21:12:50 437.475
Oscar 11 27 May 21:09:12 21:13:17 45° 72° (ENE) 21:17:25 145.826/435.025
M-CUBED/EXP-1 PRIME 27 May 21:09:44 21:11:38 13° 261° (W) 21:13:30 437.505
STRAND 1 27 May 21:18:19 21:22:54 33° 292° (WNW) 21:27:29 437.568
ZACube-1 27 May 21:23:40 21:27:49 58° 75° (ENE) 21:31:57 437.345
COMPASS 1 27 May 21:26:20 21:30:08 34° 263° (W) 21:33:57 437.405
AAUSAT CUBESAT 2 27 May 21:28:35 21:32:28 40° 262° (W) 21:36:24 437.432
CUBEBUG 2 27 May 21:29:44 21:34:02 53° 260° (W) 21:38:14 437.445
PHONESAT 2.4 27 May 21:30:44 21:32:08 12° 148° (SSE) 21:33:32 2401.200-2431.200
AIST 1 27 May 21:31:55 21:36:16 68° 96° (E) 21:40:40
PRISM 27 May 21:32:05 21:36:18 79° 104° (ESE) 21:40:26 437.425
HUMSAT D 27 May 21:32:10 21:34:51 17° 66° (ENE) 21:37:32 437.325/437.525
AIST 2 27 May 21:33:49 21:35:55 13° 40° (NE) 21:38:02 435.215
HO-68 27 May 21:34:39 21:40:38 29° 265° (W) 21:46:40 435.675
BEESAT 3 27 May 21:34:44 21:38:10 28° 246° (WSW) 21:41:33 437.485
ISS 27 May 21:45:03 21:48:16 62° 140° (SE) 21:51:30 145.825
Cosmos 2499 27 May 21:51:32 21:57:24 27° 83° (E) 22:03:34 435.465 / 435.565
DELFI C3 27 May 21:57:03 22:00:59 75° 77° (ENE) 22:04:59 145.870
UWE-3 27 May 21:58:20 22:02:19 36° 262° (W) 22:06:15 435.000/436.395/437.385
GONETS M04 27 May 22:01:06 22:09:40 60° 91° (E) 22:18:13
FUNcube-1 27 May 22:01:44 22:05:52 53° 260° (W) 22:09:57 145.935
RS-15 27 May 22:23:39 22:32:27 22° 357° (N) 22:41:27 29.354- 29.394
UNISAT 6 27 May 22:35:32 22:38:43 20° 94° (E) 22:41:55 437.425
50 SAT 27 May 22:36:12 22:36:39 10° 64° (ENE) 22:37:07 437.505
DANDE 27 May 22:38:24 22:45:44 32° 67° (ENE) 22:52:31 436.750
BEESAT 2 27 May 22:40:11 22:41:02 11° 252° (WSW) 22:41:52 435.950
TIGRISAT 27 May 22:42:50 22:46:14 22° 95° (E) 22:49:38 435.000
CUSAT 1 27 May 22:43:17 22:50:56 56° 74° (ENE) 22:57:17 437.405
Oscar 11 27 May 22:47:08 22:49:40 15° 269° (W) 22:52:12 145.826/435.025
ESTCUBE 1 27 May 22:50:16 22:54:00 26° 68° (ENE) 22:57:46 437.505/2401.250
ZACube-1 27 May 23:03:08 23:04:28 11° 270° (W) 23:05:49 437.345
CUBEBUG 1 27 May 23:03:55 23:07:31 25° 68° (ENE) 23:11:08 437.445
PHONESAT 2.4 27 May 23:05:23 23:08:24 45° 164° (SSE) 23:11:26 2401.200-2431.200
DX 1 27 May 23:05:36 23:08:58 22° 66° (ENE) 23:12:20 434.975-435.025
HUMSAT D 27 May 23:06:23 23:10:11 38° 262° (W) 23:14:00 437.325/437.525
AIST 2 27 May 23:10:48 23:14:58 81° 239° (WSW) 23:19:05 435.215
VELOX 1 27 May 23:11:13 23:15:04 29° 68° (ENE) 23:18:56 145.980
AIST 1 27 May 23:13:16 23:14:23 11° 293° (WNW) 23:15:30
ANTELSAT 27 May 23:15:56 23:20:10 55° 100° (E) 23:24:27 437.575/2403.000
ISS 27 May 23:22:15 23:24:56 23° 339° (NNW) 23:27:37 145.825
SPROUT 27 May 23:30:31 23:33:28 18° 66° (ENE) 23:36:25 437.525
Cosmos 2499 27 May 23:42:54 23:49:57 54° 283° (WNW) 23:57:33 435.465 / 435.565
SO-50 27 May 23:44:43 23:48:08 19° 110° (ESE) 23:51:33 436.795
AISAT 27 May 23:46:38 23:51:05 74° 76° (ENE) 23:55:34 437.250
POPSAT HIP 1 27 May 23:52:56 23:56:22 24° 95° (E) 23:59:47 437.405
QB50P1 27 May 23:53:17 23:56:45 25° 95° (E) 00:00:13 145.935-145.965
UKube-1 27 May 23:53:18 23:57:33 57° 73° (ENE) 00:01:49 .
QB50P2 27 May 23:55:33 23:59:11 28° 96° (E) 00:02:48 145.880/145.840
POLYITAN 1 27 May 23:58:00 00:01:38 28° 96° (E) 00:05:17 437.675
GONETS M04 27 May 23:59:30 00:06:59 30° 291° (WNW) 00:14:29
50 SAT 28 May 00:06:20 00:09:54 54° 260° (W) 00:13:29 437.505
NANOSAT C BR1 28 May 00:11:13 00:15:09 37° 98° (E) 00:19:02 145.865
UNISAT 6 28 May 00:11:36 00:15:31 35° 289° (WNW) 00:19:29 437.425
TIGRISAT 28 May 00:19:10 00:22:57 31° 290° (WNW) 00:26:46 435.000
DANDE 28 May 00:20:49 00:29:06 61° 267° (W) 00:36:31 436.750
CUSAT 1 28 May 00:26:13 00:32:27 28° 277° (W) 00:37:51 437.405
ESTCUBE 1 28 May 00:26:44 00:30:41 30° 264° (W) 00:34:41 437.505/2401.250
RS-15 28 May 00:39:28 00:50:15 34° 32° (NNE) 01:01:05 29.354- 29.394
CUBEBUG 1 28 May 00:39:45 00:43:40 30° 264° (W) 00:47:36 437.445
DX 1 28 May 00:40:56 00:44:56 34° 262° (W) 00:48:58 434.975-435.025
PHONESAT 2.4 28 May 00:41:55 00:45:03 82° 180° (S) 00:48:12 2401.200-2431.200
VELOX 1 28 May 00:47:46 00:51:30 26° 264° (W) 00:55:15 145.980
DUCHIFAT 1 28 May 00:49:30 00:53:41 82° 284° (WNW) 00:57:50 145.980
ANTELSAT 28 May 00:54:13 00:56:27 14° 296° (WNW) 00:58:41 437.575/2403.000
ISS 28 May 01:00:39 01:02:17 13° 359° (N) 01:03:55 145.825
SPROUT 28 May 01:05:05 01:09:07 40° 261° (W) 01:13:11 437.525
BUGSAT 1 28 May 01:06:26 01:10:28 71° 102° (ESE) 01:14:28 437.445
BEESAT 28 May 01:13:56 01:16:36 15° 62° (ENE) 01:19:16 436.000
JAS-2 28 May 01:17:58 01:24:51 39° 94° (E) 01:30:59 435.910
SO-50 28 May 01:23:25 01:28:14 55° 307° (NW) 01:33:03 436.795
TISAT 1 28 May 01:27:39 01:31:53 81° 257° (WSW) 01:36:08 437.305
AISAT 28 May 01:27:47 01:28:04 10° 271° (W) 01:28:19 437.250
POPSAT HIP 1 28 May 01:28:33 01:32:07 27° 291° (WNW) 01:35:41 437.405
QB50P1 28 May 01:28:57 01:32:29 27° 291° (WNW) 01:36:00 145.935-145.965
QB50P2 28 May 01:31:29 01:34:53 24° 292° (WNW) 01:38:16 145.880/145.840
UKube-1 28 May 01:32:02 01:33:56 13° 269° (W) 01:35:51 .
POLYITAN 1 28 May 01:33:58 01:37:20 24° 292° (WNW) 01:40:41 437.675
NANOSAT C BR1 28 May 01:47:42 01:50:36 18° 294° (WNW) 01:53:29 145.865
Oscar 19 28 May 01:50:50 01:55:20 30° 96° (E) 01:59:48 437.125/150
DANDE 28 May 02:07:52 02:10:08 11° 286° (WNW) 02:12:22 436.750
Gurwin Techsat 1B 28 May 02:16:43 02:20:51 22° 93° (E) 02:24:56 435.225
PHONESAT 2.4 28 May 02:18:41 02:21:43 47° 196° (SSW) 02:24:44 2401.200-2431.200
SWISSCUBE 28 May 02:19:26 02:24:09 73° 74° (ENE) 02:28:55 437.505
YUBILEINY 28 May 02:21:46 02:28:41 25° 66° (ENE) 02:35:33 435.215
ITUPSAT 1 28 May 02:25:47 02:30:31 74° 74° (ENE) 02:35:18 437.325
ITAMSAT 1 28 May 02:35:18 02:37:11 12° 89° (E) 02:39:05 435.822/435.867
ISS 28 May 02:37:08 02:39:40 20° 19° (NNE) 02:42:12 145.825
BEESAT 28 May 02:49:10 02:53:51 63° 258° (WSW) 02:58:36 436.000
RS-15 28 May 02:52:15 03:04:39 88° 57° (ENE) 03:16:58 29.354- 29.394
JAS-2 28 May 03:02:56 03:09:49 41° 295° (WNW) 03:16:02 435.910
SO-50 28 May 03:08:18 03:09:48 11° 327° (NNW) 03:11:16 436.795
Cosmos 2504 28 May 03:09:32 03:13:31 14° 59° (ENE) 03:17:34 435.465 / 435.565
Cosmos 2491 28 May 03:17:37 03:24:35 27° 82° (E) 03:31:33 435.465 / 435.565
Oscar 19 28 May 03:30:03 03:34:38 33° 292° (WNW) 03:39:11 437.125/150
KKS-1 28 May 03:37:58 03:42:19 53° 73° (ENE) 03:46:41 437.445
Gurwin Techsat 1B 28 May 03:55:55 04:01:00 46° 290° (WNW) 04:06:02 435.225
PHONESAT 2.4 28 May 03:56:26 03:58:00 13° 211° (SSW) 03:59:34 2401.200-2431.200
MOZHAYETS 4 28 May 03:56:27 04:00:55 59° 74° (ENE) 04:05:25
SWISSCUBE 28 May 04:00:52 04:02:27 11° 270° (W) 04:04:01 437.505
ITUPSAT 1 28 May 04:07:28 04:08:52 11° 271° (W) 04:10:17 437.325
ITAMSAT 1 28 May 04:12:00 04:17:15 81° 285° (WNW) 04:22:28 435.822/435.867
STARS 28 May 04:12:25 04:16:47 64° 74° (ENE) 04:21:08 437.465
ISS 28 May 04:13:11 04:16:26 81° 219° (SW) 04:19:42 145.825
YUBILEINY 28 May 04:17:35 04:26:18 72° 266° (W) 04:35:01 435.215
AO-7 28 May 04:31:36 04:39:45 53° 102° (ESE) 04:47:50 29.400- 29.500
HORYU 2 28 May 04:56:34 04:59:38 18° 93° (E) 05:02:41 437.375
Cosmos 2504 28 May 05:00:03 05:08:29 69° 80° (E) 05:17:17 435.465 / 435.565
RS-15 28 May 05:06:25 05:15:36 26° 260° (W) 05:24:46 29.354- 29.394
AO-85 28 May 05:10:35 05:14:18 19° 109° (ESE) 05:17:59 145.980
Cosmos 2491 28 May 05:11:56 05:20:42 65° 281° (WNW) 05:29:29 435.465 / 435.565
KKS-1 28 May 05:16:45 05:19:11 14° 268° (W) 05:21:38 437.445
CUBESAT XI-V 28 May 05:23:00 05:27:32 55° 74° (ENE) 05:32:09 437.345
MOZHAYETS 4 28 May 05:36:20 05:38:28 13° 270° (W) 05:40:37
STARS 28 May 05:52:01 05:53:32 12° 269° (W) 05:55:03 437.465
ITAMSAT 1 28 May 05:54:30 05:55:51 11° 303° (WNW) 05:57:13 435.822/435.867
YUBILEINY 28 May 06:18:06 06:21:24 13° 286° (WNW) 06:24:43 435.215
AO-7 28 May 06:24:47 06:32:13 37° 301° (WNW) 06:39:39 29.400- 29.500
HORYU 2 28 May 06:32:12 06:36:22 41° 289° (WNW) 06:40:31 437.375
NOAA 15 28 May 06:37:45 06:42:41 38° 98° (E) 06:47:35 137.62
Cubesat XI-IV 28 May 06:44:42 06:49:26 31° 96° (E) 06:54:08 437.490
NOAA 18 28 May 06:47:30 06:52:37 39° 99° (E) 06:57:44 137.9125
AO-85 28 May 06:48:54 06:54:20 66° 305° (NW) 06:59:40 145.980
Cosmos 2504 28 May 06:54:35 07:01:10 26° 278° (W) 07:07:59 435.465 / 435.565
STRAND 1 28 May 06:54:57 06:59:43 42° 70° (ENE) 07:04:31 437.568
BRITE-PL 28 May 07:02:28 07:07:29 54° 99° (E) 07:12:04 437.365/2234.400
CUBESAT XI-V 28 May 07:02:37 07:05:16 15° 269° (W) 07:07:56 437.345
Cosmos 2491 28 May 07:16:00 07:19:31 13° 304° (NW) 07:23:04 435.465 / 435.565
LilacSat-2 28 May 07:21:22 07:25:09 74° 102° (ESE) 07:28:56 437.200
GOMX 1 28 May 07:24:19 07:28:41 39° 97° (E) 07:32:47 467.674
CUTE-I 28 May 07:30:22 07:35:45 82° 104° (ESE) 07:41:08 437.470
AIST 1 28 May 07:40:07 07:42:58 17° 71° (ENE) 07:45:48
Cosmos 2499 28 May 07:43:59 07:45:53 11° 56° (NE) 07:47:47 435.465 / 435.565
DOVE 4 28 May 08:09:53 08:14:12 55° 100° (E) 08:18:17 437.250
GONETS M04 28 May 08:11:56 08:19:15 29° 68° (ENE) 08:26:30
SO-50 28 May 08:15:26 08:18:53 20° 42° (NE) 08:22:15 436.795
NOAA 15 28 May 08:17:52 08:22:17 27° 295° (WNW) 08:26:40 137.62
PRISM 28 May 08:21:07 08:25:10 54° 73° (ENE) 08:29:15 437.425
CANX-2 28 May 08:23:01 08:26:32 24° 95° (E) 08:30:02 2200.000
Cubesat XI-IV 28 May 08:24:41 08:29:28 34° 293° (WNW) 08:34:15 437.490
SEEDS 28 May 08:25:04 08:27:44 16° 92° (E) 08:30:23 437.485
NOAA 18 28 May 08:28:29 08:33:06 29° 295° (WNW) 08:37:43 137.9125
AO-85 28 May 08:32:59 08:35:48 14° 324° (NW) 08:38:36 145.980
O/OREOS (USA 219) 28 May 08:33:57 08:35:36 12° 98° (E) 08:37:16 437.305
STRAND 1 28 May 08:35:05 08:39:03 23° 266° (W) 08:43:03 437.568
CINEMA 3 28 May 08:35:53 08:39:33 29° 96° (E) 08:43:11 145.822/145.860
AUBIESAT-1 28 May 08:39:57 08:42:30 20° 101° (E) 08:45:03 437.475
BRITE-PL 28 May 08:42:04 08:45:25 18° 298° (WNW) 08:48:37 437.365/2234.400
M-CUBED/EXP-1 PRIME 28 May 08:46:55 08:49:53 31° 103° (ESE) 08:52:50 437.505
CUTE 1.7 + AOD 2 28 May 08:49:44 08:53:48 42° 98° (E) 08:57:52 437.475
PCSat 28 May 09:00:00 09:04:05 22° 106° (ESE) 09:08:10 145.827
HO-68 28 May 09:00:45 09:07:48 57° 102° (ESE) 09:14:50 435.675
GOMX 1 28 May 09:03:05 09:06:27 20° 296° (WNW) 09:09:41 467.674
COMPASS 1 28 May 09:08:57 09:12:50 35° 97° (E) 09:16:42 437.405
AAUSAT CUBESAT 2 28 May 09:10:55 09:14:37 29° 96° (E) 09:18:17 437.432
CUTE-I 28 May 09:12:22 09:15:05 14° 301° (WNW) 09:17:48 437.470
ZACube-1 28 May 09:14:22 09:15:24 11° 90° (E) 09:16:27 437.345
AIST 1 28 May 09:16:42 09:20:46 40° 268° (W) 09:24:47
CUBEBUG 2 28 May 09:20:40 09:24:19 29° 96° (E) 09:27:59 437.445
Cosmos 2499 28 May 09:32:35 09:41:03 56° 77° (ENE) 09:49:43 435.465 / 435.565
UNISAT 6 28 May 09:34:50 09:37:47 18° 66° (ENE) 09:40:45 437.425
TIGRISAT 28 May 09:41:52 09:45:04 20° 67° (ENE) 09:48:13 435.000
UWE-3 28 May 09:47:30 09:51:28 40° 98° (E) 09:55:27 435.000/436.395/437.385
DOVE 4 28 May 09:49:15 09:51:22 13° 298° (WNW) 09:53:27 437.250
FUNcube-1 28 May 09:49:52 09:53:25 26° 96° (E) 09:57:01 145.935
SO-50 28 May 09:55:09 09:59:48 61° 241° (WSW) 10:04:15 436.795
CANX-2 28 May 09:58:40 10:02:22 29° 290° (WNW) 10:06:03 2200.000
PRISM 28 May 09:59:07 10:00:48 12° 269° (W) 10:02:30 437.425
SEEDS 28 May 09:59:36 10:03:38 42° 288° (WNW) 10:07:39 437.485
GONETS M04 28 May 10:08:06 10:16:38 62° 268° (W) 10:25:07
O/OREOS (USA 219) 28 May 10:09:52 10:14:24 65° 294° (WNW) 10:18:56 437.305
CINEMA 3 28 May 10:13:21 10:16:33 22° 292° (WNW) 10:19:43 145.822/145.860
AUBIESAT-1 28 May 10:14:29 10:16:58 20° 296° (WNW) 10:19:27 437.475
ANTELSAT 28 May 10:14:36 10:18:47 47° 73° (ENE) 10:22:55 437.575/2403.000
M-CUBED/EXP-1 PRIME 28 May 10:22:35 10:24:14 13° 299° (WNW) 10:25:52 437.505
CUTE 1.7 + AOD 2 28 May 10:26:28 10:29:19 18° 294° (WNW) 10:32:10 437.475
Oscar 11 28 May 10:32:08 10:36:30 84° 282° (WNW) 10:40:51 145.826/435.025
PCSat 28 May 10:41:48 10:47:05 52° 304° (NW) 10:52:24 145.827
COMPASS 1 28 May 10:45:05 10:48:09 20° 293° (WNW) 10:51:13 437.405
POPSAT HIP 1 28 May 10:45:48 10:48:49 19° 66° (ENE) 10:51:50 437.405
QB50P1 28 May 10:46:04 10:49:07 20° 66° (ENE) 10:52:11 145.935-145.965
AAUSAT CUBESAT 2 28 May 10:46:37 10:49:57 23° 292° (WNW) 10:53:16 437.432
ZACube-1 28 May 10:47:56 10:52:04 62° 285° (WNW) 10:56:16 437.345
QB50P2 28 May 10:48:26 10:51:41 22° 67° (ENE) 10:54:56 145.880/145.840
HO-68 28 May 10:49:10 10:55:06 29° 300° (WNW) 11:01:02 435.675
HUMSAT D 28 May 10:49:36 10:53:20 31° 97° (E) 10:57:04 437.325/437.525
POLYITAN 1 28 May 10:50:52 10:54:09 22° 67° (ENE) 10:57:25 437.675
BEESAT 2 28 May 10:54:23 10:55:37 11° 108° (ESE) 10:56:51 435.950
CUBEBUG 2 28 May 10:57:32 11:00:49 23° 292° (WNW) 11:04:07 437.445
NANOSAT C BR1 28 May 11:03:23 11:06:59 28° 69° (ENE) 11:10:37 145.865
DELFI C3 28 May 11:09:30 11:13:30 63° 285° (WNW) 11:17:30 145.870
UNISAT 6 28 May 11:10:07 11:14:14 40° 261° (W) 11:18:19 437.425
TIGRISAT 28 May 11:17:31 11:21:32 35° 262° (W) 11:25:30 435.000
BEESAT 3 28 May 11:24:41 11:28:26 44° 117° (ESE) 11:32:13 437.485
UWE-3 28 May 11:24:53 11:27:39 17° 294° (WNW) 11:30:25 435.000/436.395/437.385
FUNcube-1 28 May 11:26:08 11:29:35 25° 291° (WNW) 11:33:05 145.935
Cosmos 2499 28 May 11:26:20 11:33:44 33° 275° (W) 11:41:19 435.465 / 435.565
JAS-2 28 May 11:30:05 11:35:26 21° 57° (ENE) 11:40:56 435.910
50 SAT 28 May 11:37:21 11:38:57 12° 92° (E) 11:40:33 437.505
AISAT 28 May 11:38:35 11:40:52 14° 91° (E) 11:43:08 437.250
DUCHIFAT 1 28 May 11:40:53 11:45:05 71° 75° (ENE) 11:49:17 145.980
CUSAT 1 28 May 11:43:39 11:49:49 55° 92° (E) 11:57:17 437.405
DANDE 28 May 11:46:59 11:51:33 26° 82° (E) 11:57:07 436.750
ANTELSAT 28 May 11:53:17 11:55:44 15° 268° (W) 11:58:11 437.575/2403.000
BUGSAT 1 28 May 11:55:41 11:59:44 48° 73° (ENE) 12:03:45 437.445
ESTCUBE 1 28 May 12:18:34 12:23:03 56° 100° (E) 12:27:30 437.505/2401.250
POPSAT HIP 1 28 May 12:20:25 12:24:20 37° 262° (W) 12:28:17 437.405
QB50P1 28 May 12:20:45 12:24:40 36° 262° (W) 12:28:34 145.935-145.965
QB50P2 28 May 12:23:30 12:27:18 32° 263° (W) 12:31:07 145.880/145.840
HUMSAT D 28 May 12:25:36 12:28:47 22° 292° (WNW) 12:31:59 437.325/437.525
POLYITAN 1 28 May 12:26:00 12:29:47 31° 263° (W) 12:33:34 437.675
CUBEBUG 1 28 May 12:27:52 12:32:07 47° 99° (E) 12:36:18 437.445
DX 1 28 May 12:28:52 12:32:57 38° 98° (E) 12:37:00 434.975-435.025
BEESAT 2 28 May 12:28:59 12:32:55 62° 305° (NW) 12:36:53 435.950
PCSat 28 May 12:30:37 12:31:47 11° 325° (NW) 12:32:58 145.827
VELOX 1 28 May 12:37:03 12:41:26 58° 101° (E) 12:45:45 145.980
NANOSAT C BR1 28 May 12:39:16 12:42:42 24° 265° (W) 12:46:08 145.865
SPROUT 28 May 12:51:04 12:54:55 32° 97° (E) 12:58:45 437.525
BEESAT 3 28 May 13:03:30 13:06:20 19° 315° (NW) 13:09:11 437.485
Oscar 19 28 May 13:07:21 13:12:15 43° 70° (ENE) 13:17:10 437.125/150
AIST 2 28 May 13:09:01 13:12:06 21° 112° (ESE) 13:15:13 435.215
50 SAT 28 May 13:09:22 13:12:53 42° 287° (WNW) 13:16:25 437.505
JAS-2 28 May 13:12:00 13:19:22 87° 256° (WSW) 13:27:18 435.910
TISAT 1 28 May 13:13:01 13:15:27 15° 92° (E) 13:17:53 437.305
AISAT 28 May 13:13:21 13:17:40 53° 287° (WNW) 13:21:56 437.250
UKube-1 28 May 13:16:17 13:20:37 77° 286° (WNW) 13:24:55 .
CUSAT 1 28 May 13:26:40 13:32:24 30° 294° (WNW) 13:39:02 437.405
DANDE 28 May 13:28:20 13:33:46 50° 287° (WNW) 13:40:49 436.750
Cosmos 2491 28 May 13:28:53 13:32:17 12° 56° (NE) 13:35:41 435.465 / 435.565
BUGSAT 1 28 May 13:33:07 13:35:21 14° 268° (W) 13:37:34 437.445
Gurwin Techsat 1B 28 May 13:37:30 13:42:18 36° 68° (ENE) 13:47:07 435.225
AO-85 28 May 13:42:06 13:45:09 17° 38° (NE) 13:48:03 145.980
AO-7 28 May 13:42:28 13:47:07 16° 47° (NE) 13:51:47 29.400- 29.500
ITAMSAT 1 28 May 13:52:25 13:56:04 20° 63° (ENE) 13:59:45 435.822/435.867
ESTCUBE 1 28 May 13:56:46 13:59:23 15° 297° (WNW) 14:02:01 437.505/2401.250
CUBEBUG 1 28 May 14:05:18 14:08:00 16° 296° (WNW) 14:10:41 437.445
DX 1 28 May 14:05:44 14:08:52 20° 295° (WNW) 14:11:59 434.975-435.025
VELOX 1 28 May 14:15:05 14:17:24 14° 298° (WNW) 14:19:43 145.980
SWISSCUBE 28 May 14:20:38 14:23:59 19° 93° (E) 14:27:19 437.505
ITUPSAT 1 28 May 14:27:15 14:30:41 19° 93° (E) 14:34:06 437.325
SPROUT 28 May 14:27:26 14:30:41 21° 293° (WNW) 14:33:54 437.525
AIST 2 28 May 14:46:31 14:50:22 37° 309° (NW) 14:54:14 435.215
TISAT 1 28 May 14:47:22 14:51:19 43° 288° (WNW) 14:55:15 437.305
Oscar 19 28 May 14:47:41 14:51:44 23° 266° (W) 14:55:49 437.125/150
BEESAT 28 May 14:49:30 14:53:49 33° 97° (E) 14:58:06 436.000
JAS-2 28 May 15:00:55 15:05:25 17° 275° (W) 15:10:05 435.910
Gurwin Techsat 1B 28 May 15:17:42 15:22:16 29° 265° (W) 15:26:51 435.225
AO-85 28 May 15:21:37 15:26:16 74° 240° (WSW) 15:30:29 145.980
